Regional Weather Roundup
Issued by NWS

Home | Current Version | Previous Version | Graphics & Text | Print | Product List | Glossary On
Versions: 1 2 3 4 5 6 7 8 9 10 11 12 13 14 15 16 17 18 19 20 21 22 23 24 25 26 27 28 29 30 31 32 33 34 35 36 37 38 39 40 41 42 43 44 45 46 47 48 49 50
000
ASUS43 KLOT 310510
RWRIL

ILLINOIS REGIONAL WEATHER ROUNDUP
NATIONAL WEATHER SERVICE CHICAGO/ROMEOVILLE IL
1100 PM CST FRI JAN 30 2015

NOTE: "FAIR" INDICATES FEW OR NO CLOUDS BELOW 12,000 FEET WITH NO
SIGNIFICANT WEATHER AND/OR OBSTRUCTIONS TO VISIBILITY.

* THESE STATIONS ARE NOT UNDER NWS QUALITY CONTROL. THEY ALSO MAY NOT
  REPORT WEATHER SUCH AS PRECIPITATION OR FOG.

ILZ001-002-007-009-015-016-024-310600-
NORTHWEST ILLINOIS

CITY           SKY/WX    TMP DP  RH WIND       PRES   REMARKS
MOLINE         PTCLDY    21  16  81 CALM      30.35F
STERLING*      MOCLDY    21  16  79 CALM      30.36F
SAVANNA*       MOCLDY    21  16  83 S6        30.34F WCI  13
$$

ILZ003-004-008-010-011-017-018-310600-
NORTH CENTRAL ILLINOIS

CITY           SKY/WX    TMP DP  RH WIND       PRES   REMARKS
ROCKFORD       CLOUDY    18  13  80 S5        30.37S WCI  11
FREEPORT*      CLOUDY    21  16  82 S7        30.35F WCI  12
ROCHELLE*      MOCLDY    18  14  83 S7        30.36S WCI   9
DE KALB*       CLEAR     15  11  84 SW6       30.36S WCI   6
PERU*          PTCLDY    23  18  81 S3        30.38S
$$

ILZ005-006-012>014-019>023-310600-
NORTHEAST ILLINOIS

CITY           SKY/WX    TMP DP  RH WIND       PRES   REMARKS
CHICAGO-OHARE  PTCLDY    20  12  71 S5        30.36F WCI  13
CHICAGO-MIDWAY PTCLDY    24  14  65 CALM      30.37F
AURORA         CLEAR     18  12  77 CALM      30.37F
LANSING*       CLEAR     19  15  82 S3        30.39S
JOLIET*        CLEAR     16  13  89 CALM      30.39S
WAUKEGAN       CLEAR     17  12  80 SW5       30.34F WCI  10
DUPAGE AIRPORT CLEAR     16  12  84 S5        30.35F WCI   9
KANKAKEE*      CLEAR     23  20  87 S5        30.39F WCI  17
WHEELING       CLEAR     20  12  71 S3        30.37F
MORRIS*        CLEAR     20  19  93 S3        30.38S
ROMEOVILLE*    CLEAR     19  14  80 S5        30.37F WCI  12
NORTHERLY ISL    N/A     25  15  66 S2          N/A
$$

LMZ740>746-310600-
SOUTHERN LAKE MICHIGAN

STATION/POSITION SKY/WX   TEMP    WIND        PRES    VSBY  WAVE
                          AIR SEA DIR/SP/G                  HT/PER
                          (F)     (DEG/KT/KT) (MB)    (MI)  (FT/S)
WAUKEGAN HARBOR            22     220/  7/ 10   N/A
HARRISON CRIB              26     230/  7/  9   N/A
BURNHAM HARBOR             25     210/  4/  6   N/A
CALUMET HARBOR             24     170/  2/  3   N/A
MICHIGAN CITY              23     160/  8/ 10   N/A
$$

ILZ025>027-034>036-040-047-049-050-058-095>099-310600-
WEST-CENTRAL ILLINOIS

CITY           SKY/WX    TMP DP  RH WIND       PRES   REMARKS
QUINCY         MOCLDY    25  17  72 S5        30.37F WCI  19
GALESBURG*     CLEAR     24  20  85 SE5       30.36S WCI  18
MACOMB*        CLEAR     25  21  84 S6        30.38F WCI  18
JACKSONVILLE*  PTCLDY    29  19  66 S5        30.40S WCI  24
PITTSFIELD*    PTCLDY    26  22  83 S3        30.40S
$$

ILZ028>032-037-038-041>044-048-051>054-059>061-310600-
CENTRAL ILLINOIS

CITY           SKY/WX    TMP DP  RH WIND       PRES   REMARKS
PONTIAC        CLEAR     25  21  85 SW3       30.39S
BLOOMINGTON    CLEAR     22  20  92 S8        30.39F WCI  13
DECATUR        CLEAR     26  20  77 S5        30.41S WCI  20
PEORIA         CLEAR     26  18  71 SW5       30.39F WCI  20
LACON*         CLEAR     21  17  84 CALM      30.38S
LINCOLN*       CLEAR     26  22  85 S3        30.42F
SPRINGFIELD    CLEAR     25  18  74 S6        30.40F WCI  18
TAYLORVILLE    CLEAR     27  21  80 SE5       30.41F WCI  21
$$

ILZ033-039-045-046-055>057-062-063-310600-
EAST-CENTRAL ILLINOIS

CITY           SKY/WX    TMP DP  RH WIND       PRES   REMARKS
CHAMPAIGN      CLEAR     23  18  81 S7        30.40F WCI  15
DANVILLE*      CLEAR     22  19  91 CALM      30.38S
RANTOUL*       CLEAR     25  20  82 S3        30.40S
MATTOON        CLEAR     23  18  81 S3        30.41S
PARIS*         CLEAR     23  21  93 CALM      30.42F
$$

ILZ079-100>102-310600-
SOUTHWEST ILLINOIS

CITY           SKY/WX    TMP DP  RH WIND       PRES   REMARKS
ALTON          PTCLDY    27  21  80 SE3       30.42S
BELLEVILLE     MOCLDY    26  22  84 CALM      30.42F
CAHOKIA*       MOCLDY    30  21  69 CALM      30.43S
SPARTA*        MOCLDY    28  21  75 SE3       30.44S
$$

ILZ064>066-069>071-074>076-080>082-084>086-088>090-092>094-310600-
SOUTH-CENTRAL ILLINOIS

CITY           SKY/WX    TMP DP  RH WIND       PRES   REMARKS
CARBONDALE     MOCLDY    25  19  78 CALM      30.44F
CAIRO*         MOCLDY    32  24  72 CALM      30.45S
EFFINGHAM*     CLEAR     23  18  81 CALM      30.44F
MARION         PTCLDY    25  21  86 CALM      30.44F
MT. VERNON     CLEAR     21  14  73 CALM      30.44F
CENTRALIA*     CLEAR     24  20  87 SE3       30.42F
SALEM*         CLEAR     26  22  84 SE3       30.43F
METROPOLIS*    MOCLDY    28  24  84 CALM      30.44S
$$

ILZ067-068-072-073-078-083-087-091-310600-
SOUTHEAST ILLINOIS

CITY           SKY/WX    TMP DP  RH WIND       PRES   REMARKS
LAWRENCEVILLE  CLEAR     23  20  88 CALM      30.45S
FLORA*         CLEAR     24  22  93 CALM      30.44F
FAIRFIELD*     CLEAR     24  20  85 CALM      30.44S
HARRISBURG*    PTCLDY    26  24  93 CALM      30.45F
ROBINSON*      CLEAR     21  20  94 CALM      30.45F
CARMI*         CLEAR     25  24  94 CALM      30.45S
$$

ABBREVIATIONS USED IN REMARKS
   TC - TEMPERATURE IN CELSIUS
  WCI - WIND CHILL INDEX
   HX - HEAT INDEX
  VSB - VISIBILITY
$$




USA.gov is the U.S. government's official web portal to all federal, state and local government web resources and services.